Location: Hillern
(53.0557°N, 9.8577°E)
Time: 09:33:27
(UTC+00:00)

Cosmos 2221 - Pass Details

Date: 19 May 2025
Orbit: 573 x 592 km, 82.5° (Epoch: 23 June)

Event Time Altitude Azimuth Distance (km) Brightness Sun altitude
Exits shadow 20:01:31 - 127° (SE) 2,145 4.6 -5.7°
Reaches altitude 10° 20:02:29 10° 118° (ESE) 1,894 4.4 -5.8°
Maximum altitude 20:04:51 15° 83° (E) 1,596 4.3 -6.0°
Drops below altitude 10° 20:07:14 10° 48° (NE) 1,898 5.1 -6.3°
Sets 20:10:13 0° 25° (NNE) 2,800 6.2 -6.6°
